Погода в Рабате

Марокко     34°01′00″N   6°50′25″W
темп.,
°C
ветер,
м/с
пор.,
м/с
влажн.,
%
обл.,
%
осадки,
мм/ч
давл.,
гПа
погр.,
м
17 июня, чт
чт1701:00+18юз348511 0.0 1015342
04:00+18ююз47858 0.1 1015330
07:00+18ююз59822 0.1 1015444
10:00+22зюз5662100 0.0 10151047
13:00+23з776353 0.0 1015883
16:00+23зсз676891 0.0 1015833
19:00+21зсз5774100 0.0 1014679
22:00+20з357979 0.0 1016484
18 июня, пт
пт1801:00+19юз2383100 0.0 1016271
04:00+18ююз3586100 0.3 1015305
07:00+19ююз3680100 0.4 1015373
10:00+21зюз5668100 0.1 1015876
13:00+21зсз6771100 0.4 1016839
16:00+21сз6665100 0.1 10161038
19:00+20зсз5565100 0.1 1017969
22:00+18сз4570100 0.0 1019549
19 июня, сб
сб1901:00+17сз1270100 0.0 1019449
04:00+17всв1272100 0.0 1017423
07:00+17юв1273100 0.0 1018277
10:00+20сз22596 0.1 10181112
13:00+21сз54550 0.1 10181085
16:00+22ссз65584 0.0 10171094
19:00+20ссз66644 0.0 1018919
22:00+18с457357 0.0 1020479
20 июня, вс
вс2001:00+17ссв237472 0.0 1019427
04:00+16в228079 0.0 1018254
07:00+15вюв118142 0.0 101880
10:00+20сз22590 0.0 1018779
13:00+21сз53542 0.0 1018824
16:00+21сз54535 0.0 1016685
19:00+20сз445995 0.0 1016565
22:00+18ссз22723 0.0 1018283
21 июня, пн
пн2101:00+17св11790 0.0 1017241
04:00+16юв22838 0.0 101675
07:00+16юв228139 0.0 101698
10:00+21ссз336996 0.0 1016679
13:00+22ссз546628 0.0 1016856
16:00+22ссз66614 0.0 1015762
19:00+20ссз56650 0.0 1016719
22:00+18с34720 0.0 1018420